Regional Weather Roundup
Issued by NWS

Home | Current Version | Previous Version | Graphics & Text | Print | Product List | Glossary On
Versions: 1 2 3 4 5 6 7 8 9 10 11 12 13 14 15 16 17 18 19 20 21 22 23 24 25 26 27 28 29 30 31 32 33 34 35 36 37 38 39 40 41 42 43 44 45 46 47 48 49 50
000
ASUS43 KOAX 011010
RWRNE

WEATHER ROUNDUP FOR NEBRASKA
NATIONAL WEATHER SERVICE OMAHA NE
500 AM CDT SUN MAY 01 2016

NOTES: SATELLITE DATA IS BEING USED TO AUGMENT CLOUD COVER ABOVE
       12000 FEET.
       "FAIR" INDICATES FEW OR NO CLOUDS BELOW 12,000 FEET WITH NO
       SIGNIFICANT WEATHER AND/OR OBSTRUCTIONS TO VISIBILITY.

  * THESE STATIONS DO NOT REPORT WEATHER SUCH AS RAIN...SNOW OR FOG.

NEZ001>004-019>022-054>056-011100-
NEBRASKA PANHANDLE

CITY           SKY/WX    TMP DP  RH WIND       PRES   REMARKS
SCOTTSBLUFF    CLOUDY    38  34  85 NW7       30.24R WCI  33
ALLIANCE       MIX PCPN  33  33 100 N10       30.20R WCI  25
CHADRON        CLOUDY    38  32  79 NW3       30.25R
KIMBALL        LGT RAIN  33  33  99 N14       30.21R WCI  23
SIDNEY         FLURRIES  34  32  92 N21       30.19R WCI  22
$$

NEZ057>060-069>072-079>082-011100-
SOUTHWEST NEBRASKA

CITY           SKY/WX    TMP DP  RH WIND       PRES   REMARKS
NORTH PLATTE   LGT RAIN  35  33  92 N14       30.10R WCI  26
IMPERIAL       CLOUDY    35  33  92 N21       30.12R WCI  24
LEXINGTON      CLOUDY    39  36  89 N16       30.04R WCI  30
MCCOOK         MOCLDY    37  34  89 N16       30.06R WCI  28
OGALLALA       DRIZZLE   36  33  89 N18       30.15R WCI  26
$$

NEZ005>010-023>029-035>040-094-011100-
NORTH CENTRAL NEBRASKA

CITY           SKY/WX    TMP DP  RH WIND       PRES   REMARKS
VALENTINE      CLOUDY    39  37  92 NW10      30.16S WCI  32
AINSWORTH      DRIZZLE   40  39  97 N10       30.14S WCI  34
BROKEN BOW     RAIN      40  38  93 NE20G28   30.04R WCI  30
O`NEILL        LGT RAIN  42  40  94 N17G23    30.09R
ORD            LGT RAIN  41  39  93 N18       30.03R
THEDFORD       CLOUDY    37  36  99 N12       30.14R WCI  29
$$

NEZ041-046>049-061>064-073>077-083>087-011100-
SOUTH CENTRAL NEBRASKA

CITY           SKY/WX    TMP DP  RH WIND       PRES   REMARKS
GRAND ISLAND   LGT RAIN  41  40  96 N15       29.98R FOG
AURORA         DRIZZLE   43  42  98 N17       29.96R
HASTINGS       CLOUDY    42  40  92 N20       29.96R
HEBRON         CLOUDY    47  47  97 N10       29.89R FOG
HOLDREGE       CLOUDY    39  38  94 N21G26    30.00R WCI  29
KEARNEY *      CLOUDY    39  36  87 N22       30.00R WCI  29
YORK           LGT RAIN  43  41  93 NE16G23   29.94R
$$

NEZ011>018-030>034-042>045-011100-
NORTHEAST NEBRASKA

CITY           SKY/WX    TMP DP  RH WIND       PRES   REMARKS
NORFOLK        LGT RAIN  41  39  93 NE14G24   30.01R
ALBION         LGT RAIN  40  39  93 NE13      30.01S WCI  33
BLAIR          LGT RAIN  44  43  96 NE16G23   29.94R
COLUMBUS *     CLOUDY    43  34  70 N17G25    29.98R
FREMONT        CLOUDY    43  43 100 NE8       29.96S FOG
TEKAMAH        LGT RAIN  44  43  96 N14       29.98S
WAYNE          LGT RAIN  42  41  95 NE15      30.03R
$$

NEZ050>053-065>068-078-088>093-011100-
SOUTHEAST NEBRASKA

CITY           SKY/WX    TMP DP  RH WIND       PRES   REMARKS
LINCOLN        LGT RAIN  46  44  93 NE17      29.93R FOG
OMAHA EPPLEY   DRIZZLE   45  43  93 NE12      29.94R
BEATRICE       CLOUDY    46  45  95 W5        29.89S
FALLS CITY     CLOUDY    50  48  93 CALM      29.88S
NEBRASKA CITY  FOG       48  48 100 NE9       29.90R VSB 1/2
PLATTSMOUTH    CLOUDY    46  46  99 NE9       29.92R
$$

NEZ044-045-051>053-067-011100-
OMAHA AREA

CITY           SKY/WX    TMP DP  RH WIND       PRES   REMARKS
OMAHA EPPLEY   DRIZZLE   45  43  93 NE12      29.94R
BLAIR          LGT RAIN  44  43  96 NE16G23   29.94R
FREMONT        CLOUDY    43  43 100 NE8       29.96S FOG
MILLARD        CLOUDY    45  44  95 NE3       29.94R
OFFUTT AFB     CLOUDY    46  46  99 NE10G17   29.92R
PLATTSMOUTH    CLOUDY    46  46  99 NE9       29.92R
WAHOO          CLOUDY    45  43  93 NE15      29.94R
$$




USA.gov is the U.S. government's official web portal to all federal, state and local government web resources and services.